Weather History for Salinas, CA

Change the Weather History Date:

Monday, October 3, 2011

  Actual Average Record
Temperature  
Mean Temperature 60 °F 63 °F  
Max Temperature 69 °F 74 °F 99 °F (1985)
Min Temperature 50 °F 52 °F 41 °F (1939)
Degree Days  
Heating Degree Days 5 3  
Month to date heating degree days 6 9  
Since 1 July heating degree days 186 204  
Cooling Degree Days 0 1  
Month to date cooling degree days 0 3  
Year to date cooling degree days 63 108  
Growing Degree Days 11 (Base 50)    
Moisture  
Dew Point 54 °F    
Average Humidity 72    
Maximum Humidity 90    
Minimum Humidity 53    
Precipitation  
Precipitation 0.10 in 0.01 in 0.17 in (1956)
Month to date precipitation 0.10 0.03  
Year to date precipitation 9.99 8.95  
Since 1 July precipitation 0.15 0.23  
Sea Level Pressure  
Sea Level Pressure 29.96 in    
Wind  
Wind Speed 6 mph (WNW)    
Max Wind Speed 14 mph    
Max Gust Speed 18 mph    
Visibility 9 miles    
Events Rain    
T = Trace of Precipitation, MM = Missing Value Source: NWS Daily Summary

Daily Weather History Graph

Daily Weather History Graph

Search for Another Location

Airport:

Trip Planner

Search our weather history database for the weather conditions in past years. The results will help you decide how hot, cold, wet, or windy it might be!

Date:

Astronomy

Oct. 03, 2011 Rise Set
Actual Time 7:03 AM PDT 6:47 PM PDT
Civil Twilight 6:37 AM PDT 7:12 PM PDT
Nautical Twilight 6:07 AM PDT 7:42 PM PDT
Astronomical Twilight 5:37 AM PDT 8:12 PM PDT
Moon 1:57 PM PDT (10/3) No Moon Set
Length of Visible Light 12h 35m
Length of Day
11h 43m
Waxing Crescent, 46% of the Moon is Illuminated
Oct 3
Waxing Crescent
Oct 3
First Quarter
Oct 11
Full
Oct 19
Last Quarter
Oct 26
New

Hourly Weather History & Observations

Time (PDT) Temp. Dew Point Humidity Pressure Visibility Wind Dir Wind Speed Gust Speed Precip Events Conditions
12:53 AM 60.1 °F 55.0 °F 83% 30.04 in 10.0 mi WNW 3.5 mph - N/A   Overcast
1:53 AM 60.1 °F 54.0 °F 80% 30.04 in 10.0 mi WSW 5.8 mph - N/A   Overcast
2:53 AM 57.9 °F 52.0 °F 81% 30.03 in 10.0 mi Calm Calm - N/A   Mostly Cloudy
3:35 AM 59.0 °F 51.8 °F 77% 29.99 in 10.0 mi Calm Calm - N/A   Scattered Clouds
3:53 AM 57.9 °F 53.1 °F 84% 30.01 in 10.0 mi Calm Calm - N/A   Scattered Clouds
4:53 AM 55.0 °F 48.0 °F 77% 30.01 in 10.0 mi WSW 4.6 mph - N/A   Clear
5:53 AM 54.0 °F 46.0 °F 75% 30.01 in 10.0 mi Calm Calm - N/A   Clear
8:53 AM 57.0 °F 53.1 °F 87% 30.02 in 9.0 mi East 10.4 mph - N/A   Partly Cloudy
9:53 AM 60.1 °F 52.0 °F 75% 30.02 in 10.0 mi ESE 9.2 mph - N/A   Clear
10:53 AM 64.4 °F 53.6 °F 68% 29.97 in 10.0 mi Variable 4.6 mph - N/A   Clear
11:53 AM 66.9 °F 51.1 °F 57% 29.98 in 10.0 mi ESE 5.8 mph - N/A   Clear
12:53 PM 68.0 °F 51.1 °F 55% 29.97 in 10.0 mi Calm Calm - N/A   Clear
1:53 PM 68.0 °F 50.0 °F 52% 29.96 in 10.0 mi West 9.2 mph - N/A   Clear
2:53 PM 66.2 °F 51.8 °F 60% 29.92 in 10.0 mi WNW 11.5 mph - N/A   Clear
3:53 PM 68.0 °F 52.0 °F 56% 29.92 in 10.0 mi WNW 10.4 mph - N/A   Partly Cloudy
4:53 PM 66.0 °F 53.1 °F 63% 29.94 in 10.0 mi NW 8.1 mph - N/A   Overcast
5:53 PM 63.0 °F 55.0 °F 75% 29.92 in 10.0 mi NNW 9.2 mph - 0.00 in   Overcast
6:53 PM 62.1 °F 57.0 °F 84% 29.92 in 9.0 mi NW 6.9 mph - 0.01 in Rain Light Rain
7:53 PM 61.0 °F 57.0 °F 87% 29.92 in 9.0 mi West 5.8 mph - 0.04 in Rain Light Rain
8:33 PM 60.8 °F 57.2 °F 88% 29.89 in 6.0 mi NW 4.6 mph - 0.02 in Rain Rain
8:53 PM 61.0 °F 57.9 °F 90% 29.92 in 7.0 mi NW 6.9 mph - 0.03 in Rain Light Rain
9:53 PM 60.1 °F 57.9 °F 93% 29.93 in 10.0 mi NW 5.8 mph - 0.01 in Rain Light Rain
10:44 PM 60.8 °F 57.2 °F 88% 29.90 in 10.0 mi NW 3.5 mph - 0.00 in   Overcast
10:53 PM 60.1 °F 57.9 °F 93% 29.94 in 9.0 mi NW 3.5 mph - 0.00 in   Overcast
11:53 PM 60.1 °F 57.0 °F 90% 29.93 in 7.0 mi Calm Calm - 0.01 in Rain Light Rain